FW9092 Weather Reports


time (UTC)temp
C
wind
direction
speed
KPH
gust
KPH
rain 1hr
cm
rain 24hr
cm
rain mn
cm
humidity
%
barometer
mb
20260507040005 20 26 0.0 0.0 0.00 0.00 0.00 86 983.3
20260507034507 20 26 0.0 0.0 0.00 0.00 0.00 85 983.5
20260507033010 20 26 0.0 0.0 0.00 0.00 0.00 85 983.5
20260507031502 20 26 0.0 0.0 0.00 0.00 0.00 85 983.4
20260507030004 20 26 0.0 0.0 0.00 0.00 0.00 84 983.4
20260507024503 20 26 0.0 0.0 0.00 0.00 0.00 83 983.4
20260507023006 20 26 0.0 0.0 0.00 0.00 0.00 83 983.3
20260507021502 20 26 0.0 0.0 0.00 0.00 0.00 83 983.2
20260507020007 20 26 0.0 0.0 0.00 0.00 0.00 83 983.1
20260507014503 20 26 0.0 0.0 0.00 0.00 0.00 82 983.3
20260507013003 21 26 0.0 0.0 0.00 0.00 0.00 82 983.1
20260507011505 21 26 0.0 0.0 0.00 0.00 0.00 82 983.0
20260507010006 21 26 0.0 0.0 0.00 0.00 0.00 81 982.9
20260507004502 21 26 0.0 0.0 0.00 0.00 0.00 81 982.8
20260507003003 21 26 0.0 0.0 0.00 0.00 0.00 80 982.5
20260507001502 21 26 0.0 0.0 0.00 0.00 0.00 80 982.3
20260507000007 21 26 0.0 0.0 0.00 0.00 0.00 79 982.2
20260506234502 21 26 0.0 0.0 0.00 0.00 0.00 79 981.8
20260506233003 22 26 0.0 0.0 0.00 0.00 0.00 78 981.6
20260506231506 22 26 0.0 0.0 0.00 0.00 0.00 77 981.5
20260506230005 22 26 0.0 0.0 0.00 0.00 0.00 76 981.4
20260506224503 23 26 0.0 0.0 0.00 0.00 0.00 75 981.4
20260506223002 23 26 0.0 0.0 0.00 0.00 0.00 73 981.5
20260506221507 24 26 0.0 0.0 0.00 0.00 0.00 71 981.4
20260506220015 25 26 0.0 0.0 0.00 0.00 0.00 69 981.5
20260506214505 26 26 0.0 0.0 0.00 0.00 0.00 68 981.1
20260506213003 26 26 0.0 0.0 0.00 0.00 0.00 67 981.0
20260506211508 27 26 0.0 0.0 0.00 0.00 0.00 66 980.9
20260506210011 27 26 0.0 0.0 0.00 0.00 0.00 65 980.8
20260506204503 27 26 0.0 0.0 0.00 0.00 0.00 64 981.0
20260506203002 28 26 0.0 0.0 0.00 0.00 0.00 63 981.1
20260506201502 28 26 0.0 0.0 0.00 0.00 0.00 62 980.9
20260506200005 28 26 0.0 0.0 0.00 0.00 0.00 61 981.2
20260506194608 28 26 0.0 0.0 0.00 0.00 0.00 61 981.2
20260506193116 29 26 0.0 0.0 0.00 0.00 0.00 60 981.3
20260506191509 28 26 0.0 0.0 0.00 0.00 0.00 61 981.4
20260506190022 28 26 0.0 0.0 0.00 0.00 0.00 62 981.5
20260506174502 28 15 0.0 0.0 0.00 0.00 0.00 61 982.0
20260506173008 28 15 0.0 0.0 0.00 0.00 0.00 62 982.2
20260506171502 28 15 0.0 0.0 0.00 0.00 0.00 62 982.4
20260506170006 29 15 0.0 0.0 0.00 0.00 0.00 61 982.6
20260506164602 29 15 0.0 0.0 0.00 0.00 0.00 61 982.3
20260506163009 28 15 0.0 0.0 0.00 0.00 0.00 62 982.4
20260506161502 28 15 0.0 0.0 0.00 0.00 0.00 61 982.7
20260506160006 28 15 0.0 0.0 0.00 0.00 0.00 63 982.9
20260506154501 28 15 0.0 0.0 0.00 0.00 0.00 64 982.9
20260506153005 27 15 0.0 0.0 0.00 0.00 0.00 65 983.2
20260506151501 27 15 0.0 0.0 0.00 0.00 0.00 67 983.1
20260506150004 26 15 0.0 0.0 0.00 0.00 0.00 70 983.1
20260506144515 25 15 0.0 0.0 0.00 0.00 0.00 72 983.4
20260506143004 25 15 0.0 0.0 0.00 0.00 0.00 74 983.6
20260506141502 23 15 0.0 0.0 0.00 0.00 0.00 76 983.5
20260506140004 22 15 0.0 0.0 0.00 0.00 0.00 79 983.6
20260506134502 21 15 0.0 0.0 0.00 0.00 0.00 82 983.9
20260506131506 20 15 0.0 0.0 0.00 0.00 0.00 86 983.6
20260506130111 20 15 0.0 0.0 0.00 0.00 0.00 88 983.5
20260506124501 20 15 0.0 0.0 0.00 0.00 0.00 89 983.4
20260506123002 19 15 0.0 0.0 0.00 0.00 0.00 89 983.3
20260506121501 19 15 0.0 0.0 0.00 0.00 0.00 89 983.2
20260506120006 19 15 0.0 0.0 0.00 0.00 0.00 89 983.1
20260506114504 18 15 0.0 0.0 0.00 0.00 0.00 88 982.9
20260506113003 18 15 0.0 0.0 0.00 0.00 0.00 88 982.8
20260506111503 19 15 0.0 0.0 0.00 0.00 0.00 88 982.6
20260506110004 19 15 0.0 0.0 0.00 0.00 0.00 88 982.3
20260506104501 18 15 0.0 0.0 0.00 0.00 0.00 88 982.2
20260506103001 18 15 0.0 0.0 0.00 0.00 0.00 88 982.0
20260506101500 19 15 0.0 0.0 0.00 0.00 0.00 88 982.0
20260506100004 19 15 0.0 0.0 0.00 0.00 0.00 87 982.1
20260506094501 19 15 0.0 0.0 0.00 0.00 0.00 88 982.0
20260506093001 19 15 0.0 0.0 0.00 0.00 0.00 88 981.9
20260506091502 19 15 0.0 0.0 0.00 0.00 0.00 88 981.9
20260506090008 19 15 0.0 0.0 0.00 0.00 0.00 88 982.0
20260506084501 19 15 0.0 0.0 0.00 0.00 0.00 88 982.2
20260506083001 19 15 0.0 0.0 0.00 0.00 0.00 88 982.1
20260506081501 19 15 0.0 0.0 0.00 0.00 0.00 88 982.0
20260506073001 19 15 0.0 0.0 0.00 0.00 0.00 88 982.0
20260506071500 19 15 0.0 0.0 0.00 0.00 0.00 87 982.1
20260506044502 20 15 0.0 0.0 0.00 0.00 0.00 85 982.6
20260506043003 20 15 0.0 0.0 0.00 0.00 0.00 85 982.4
20260506041502 20 15 0.0 0.0 0.00 0.00 0.00 85 982.4